ECMWFNIL_925_thetae_000.txt.gz
Theta_e
279 279 278 278 278 278 278 278 277 277 277 277 277 277 277 277 277 278 279 279 279 279 281 284 284 284 285 286 288 292 294 296 297 296 297 298 298 298 298 298 298 298
279 278 278 278 277 277 277 277 277 277 277 277 277 277 277 276 276 277 278 278 278 278 280 282 283 284 286 286 287 290 293 295 297 297 297 297 297 298 298 298 298 298
278 278 277 277 277 277 277 276 276 276 276 277 276 276 276 276 276 276 277 277 277 278 280 280 282 284 285 285 285 288 291 294 297 296 296 297 297 298 299 299 299 298
277 277 277 277 277 276 276 276 276 276 276 276 276 276 276 276 276 276 276 277 277 279 279 279 281 283 284 283 284 286 288 291 295 296 295 296 297 297 298 298 299 298
277 277 276 276 276 276 276 276 276 276 276 276 276 276 276 275 275 275 276 276 277 278 278 279 281 282 282 282 282 283 285 288 292 295 295 295 296 297 297 298 299 299
276 276 276 276 276 276 276 276 276 276 276 276 275 275 275 275 275 275 275 276 276 276 277 279 280 280 280 281 281 282 284 286 289 293 294 295 296 296 297 298 299 299
276 276 276 276 276 276 276 275 275 276 275 275 275 275 274 274 274 274 275 275 275 276 277 278 278 278 279 280 280 281 283 284 287 290 293 295 295 296 297 297 298 299
275 275 275 275 275 275 275 275 275 275 275 275 274 274 274 274 274 274 274 274 275 275 276 276 276 276 278 279 280 281 282 283 285 288 292 294 295 295 296 297 298 299
274 274 274 274 275 275 275 275 275 275 274 274 274 273 273 273 273 273 274 274 274 274 275 274 275 275 277 278 279 280 281 281 283 286 290 293 295 295 295 295 297 298
274 274 274 274 274 274 274 274 274 274 274 273 273 273 272 272 272 273 273 273 273 273 273 273 274 275 275 276 277 279 280 281 282 284 288 292 294 294 294 294 295 296
273 273 273 273 273 273 274 274 274 273 273 273 273 272 272 271 271 272 272 272 272 272 272 273 273 274 274 274 276 278 279 280 281 283 286 290 293 294 294 294 294 295
272 272 272 272 272 273 273 273 273 273 272 272 272 271 271 271 271 271 271 272 272 272 272 272 272 272 273 274 275 276 277 278 280 282 285 289 292 293 293 293 294 294
271 271 271 271 272 272 272 272 272 272 271 271 271 271 270 270 270 270 270 271 271 271 271 271 272 272 272 273 274 275 276 278 279 281 285 289 291 293 293 293 293 294
270 270 270 270 271 271 271 271 271 270 270 269 269 269 269 269 269 269 269 270 270 270 271 271 271 272 272 273 273 275 276 278 280 281 284 287 290 292 293 293 293 293
270 269 270 270 270 270 270 270 270 269 268 268 268 268 268 268 268 269 269 269 270 270 270 270 271 271 272 272 273 275 277 278 280 281 284 286 290 292 293 293 293 293
269 269 269 269 269 269 269 268 268 267 267 267 267 267 267 268 268 268 269 269 269 270 270 270 271 271 272 273 274 276 277 279 280 282 284 286 289 292 293 293 293 293
269 269 269 268 268 268 268 267 267 266 266 266 266 267 267 267 268 268 269 269 269 269 270 270 271 271 272 274 275 277 278 280 281 283 284 286 289 291 293 293 293 293
268 268 268 267 267 266 266 266 265 265 265 266 266 267 267 267 268 268 269 269 269 269 270 270 270 271 272 273 275 277 279 280 282 283 285 286 288 290 292 292 292 293
268 267 266 266 265 265 265 264 264 265 265 265 266 266 267 268 268 269 269 269 269 269 270 270 270 271 272 273 274 276 279 281 282 283 284 285 287 288 290 292 292 292
266 266 265 264 264 264 263 263 264 264 264 265 266 266 267 268 268 269 269 269 269 269 270 270 271 271 272 273 274 276 278 280 282 283 284 285 286 287 289 291 292 292
265 264 264 263 263 263 263 263 263 264 264 265 266 266 267 268 269 269 269 269 269 270 270 271 271 272 273 274 275 277 279 280 282 283 284 285 285 286 288 290 292 292
264 263 262 262 262 262 262 263 263 264 264 265 266 267 268 268 269 269 269 270 270 270 271 271 272 273 274 274 275 278 280 281 283 284 284 285 285 286 287 289 291 292
262 262 261 261 261 262 262 263 263 264 265 265 266 267 268 269 270 270 270 270 271 271 271 272 272 273 274 275 276 278 280 282 283 284 285 285 286 286 287 289 291 292
261 261 261 261 261 262 262 263 263 264 265 266 267 268 269 270 270 270 271 271 271 272 272 272 273 273 274 275 276 278 281 282 283 284 285 286 286 287 288 289 291 292
260 260 260 261 261 262 262 263 264 265 266 267 267 268 269 269 270 271 271 272 272 272 273 273 273 273 274 275 276 278 280 282 284 285 286 287 287 288 289 290 291 292
260 260 260 261 261 262 263 264 265 265 265 266 267 268 268 269 270 270 271 272 273 273 274 274 274 274 274 275 277 278 280 282 284 285 285 286 287 288 289 290 291 291

ECMWFNIL_925_thetae_003.txt.gz
Theta_e
278 278 278 278 278 278 278 278 277 277 277 277 277 277 277 277 277 277 277 277 277 277 277 277 277 277 278 278 278 280 281 282 284 285 286 286 289 292 295 296 296 297
278 277 277 277 277 277 277 277 277 277 277 277 276 276 276 277 277 277 277 277 276 276 276 276 276 277 277 277 278 280 280 281 283 284 284 285 286 290 294 296 297 297
277 277 276 276 276 276 276 276 276 276 276 276 276 276 276 276 276 277 276 276 276 276 276 276 276 276 277 278 278 279 279 280 282 283 283 284 285 287 292 295 297 297
276 276 276 275 275 275 275 276 276 276 276 276 276 276 276 276 276 276 276 276 276 275 275 275 275 276 276 277 278 278 279 280 281 281 282 283 284 285 289 293 296 297
276 275 275 275 275 275 275 275 275 275 275 275 276 276 276 276 276 276 276 275 275 275 275 275 275 275 276 276 276 278 279 280 280 281 281 282 283 284 287 290 294 296
275 275 274 274 274 274 274 274 274 274 275 275 275 276 276 276 276 276 276 275 275 274 274 274 275 275 275 275 276 277 278 278 278 279 280 281 282 284 285 288 292 295
274 274 274 273 273 273 273 273 274 274 274 275 275 275 275 275 275 275 275 275 274 274 274 274 274 274 275 275 276 276 276 276 276 277 279 281 282 283 284 286 289 293
273 273 273 272 272 272 272 273 273 273 274 274 274 274 275 275 274 274 274 274 274 273 273 273 273 274 274 275 275 275 275 275 275 277 279 280 281 282 282 284 287 291
272 272 272 272 272 272 272 272 272 272 273 273 273 274 274 274 274 274 273 273 273 273 272 272 273 273 274 274 274 274 274 274 275 276 277 278 279 281 282 283 286 289
272 271 271 271 271 271 271 271 272 272 272 272 273 273 273 273 273 273 272 272 272 272 272 272 272 273 273 273 273 274 273 273 274 275 275 276 278 281 282 283 284 287
271 271 271 271 271 271 271 271 271 271 271 272 272 272 273 272 272 271 271 271 271 271 271 271 272 272 272 273 273 273 273 273 273 274 274 275 277 279 281 281 282 285
270 270 270 270 270 270 270 270 270 270 271 271 271 271 272 271 270 270 270 270 270 270 270 270 271 271 271 272 272 272 272 272 273 273 273 275 276 277 278 280 281 283
270 270 270 270 270 270 270 270 270 270 270 270 270 270 270 269 269 269 268 268 269 269 269 270 270 270 271 271 271 272 272 272 272 272 273 274 275 276 278 280 281 283
270 269 269 269 269 269 269 269 269 269 268 268 268 268 268 268 268 267 267 267 268 268 269 269 269 270 270 271 271 271 271 272 272 272 273 274 275 276 278 280 281 283
269 269 269 269 269 269 269 268 268 267 267 267 267 266 266 266 266 266 267 267 267 268 268 269 269 270 270 270 271 271 271 271 272 272 273 274 275 276 278 280 281 283
269 269 269 269 268 268 267 267 266 266 265 265 265 265 265 265 265 266 266 266 267 268 268 269 269 270 270 271 271 272 272 272 273 273 273 274 276 277 279 280 282 284
268 268 268 268 267 266 266 265 265 264 264 264 264 264 264 264 265 265 266 266 267 268 269 269 269 270 270 271 272 273 274 274 274 275 275 276 277 278 279 281 282 284
268 267 267 266 266 265 264 264 263 263 263 263 263 263 264 264 265 265 266 266 267 268 269 269 270 270 271 272 273 274 274 275 275 275 276 276 277 279 280 282 283 285
267 266 265 265 264 263 263 262 262 262 262 263 263 263 264 264 265 265 266 267 267 268 269 269 270 270 271 272 273 274 275 275 276 276 276 276 277 279 281 282 284 285
265 264 264 263 262 262 262 261 262 262 262 263 263 263 264 265 265 266 266 267 268 268 269 270 270 270 271 272 273 275 276 276 276 276 276 276 276 278 280 282 284 285
264 263 262 262 261 261 261 261 261 262 262 263 263 264 265 265 266 266 267 268 268 269 270 270 270 271 272 273 274 275 276 277 277 277 277 277 277 278 280 282 283 283
262 261 261 261 261 261 261 261 261 262 262 263 264 265 265 265 266 266 267 268 268 269 270 270 271 272 273 274 275 276 277 277 277 277 277 277 278 279 280 281 282 283
261 260 260 260 260 260 261 261 261 262 263 264 264 264 264 265 265 266 266 267 268 269 270 270 271 272 273 275 276 277 277 277 277 277 277 278 279 280 281 282 283 284
260 259 260 260 260 260 261 261 262 262 263 264 264 264 264 264 265 265 266 266 267 268 269 270 271 272 274 275 276 277 278 278 278 278 278 279 280 281 282 283 284 284
259 259 259 260 260 260 261 261 262 263 263 263 263 263 264 264 264 265 265 266 267 268 269 270 272 273 274 276 277 278 279 279 278 278 278 279 280 281 283 284 284 285
259 259 259 260 260 261 261 262 262 263 263 263 263 263 263 263 264 264 265 266 267 268 269 270 271 272 274 275 277 278 279 280 280 279 279 279 280 281 283 284 285 286

ECMWFNIL_925_thetae_006.txt.gz
Theta_e
279 278 277 277 277 277 277 276 276 276 276 276 276 276 276 276 276 276 276 276 276 276 276 277 277 277 277 277 277 277 277 277 277 277 277 278 279 281 281 282 283 284
278 277 277 277 277 276 276 276 275 275 275 275 275 275 275 275 276 276 276 276 276 276 276 277 277 277 276 276 276 276 276 276 276 277 277 278 279 280 281 281 282 283
277 277 277 276 276 275 275 275 274 274 275 274 275 275 275 275 275 275 275 276 276 276 276 276 276 276 276 276 276 275 276 276 276 276 277 278 278 278 279 280 280 281
277 277 276 275 275 275 274 274 274 274 274 274 274 274 274 274 275 275 275 275 276 276 276 276 276 276 276 276 275 275 275 275 276 276 276 276 277 278 279 280 281 281
277 276 275 274 274 274 273 273 273 273 273 273 273 273 274 274 274 274 275 275 275 275 276 276 276 276 276 275 275 275 275 275 275 275 275 276 276 278 279 280 280 281
276 275 274 274 273 273 273 272 272 272 272 272 273 273 273 273 274 274 274 274 275 275 275 275 275 275 275 275 275 274 275 275 275 275 275 276 276 277 278 278 278 278
275 274 274 273 273 272 272 272 272 272 272 272 272 272 272 272 273 273 273 274 274 274 275 275 274 274 274 274 274 274 274 274 274 275 275 275 276 276 276 276 276 277
274 273 273 273 272 272 271 271 271 271 271 271 271 271 272 272 272 273 273 273 274 274 274 274 273 273 273 274 274 273 273 273 274 274 275 275 275 276 275 275 276 278
274 273 273 272 271 271 271 271 271 270 270 271 271 271 271 271 272 272 272 273 273 273 273 273 272 272 272 273 273 273 272 273 273 274 274 275 275 275 275 274 276 277
274 273 272 271 271 270 270 270 270 270 270 270 270 270 270 271 271 271 271 272 272 272 272 271 271 271 271 272 272 272 272 272 273 273 274 274 274 274 274 274 275 275
273 272 271 270 270 270 270 270 270 270 270 270 270 270 270 270 269 270 270 270 270 270 270 270 270 270 270 270 271 271 271 271 272 272 273 273 273 273 273 273 274 274
271 271 270 270 269 269 269 269 269 269 269 269 269 268 268 268 268 268 268 268 268 268 268 268 268 268 268 269 269 270 270 271 271 272 272 272 273 273 273 273 273 273
270 270 269 269 269 269 269 269 269 268 268 267 267 266 266 266 266 266 266 267 267 267 267 267 267 267 268 268 268 269 269 270 270 271 271 272 272 272 272 273 273 273
269 269 269 269 269 268 268 268 267 267 266 265 265 265 264 265 265 265 265 265 265 265 266 266 266 267 267 267 268 268 269 270 270 271 271 271 272 272 272 272 273 273
269 268 268 268 268 267 267 266 266 265 264 264 263 263 263 263 263 264 264 264 264 265 265 265 266 266 267 267 268 269 270 270 271 271 271 271 272 272 272 272 272 273
268 268 268 267 267 266 266 265 264 264 263 262 262 262 263 263 263 263 263 264 264 264 265 265 266 266 267 268 269 270 271 272 272 272 272 272 272 272 272 273 273 273
267 267 266 266 266 265 264 264 263 262 262 262 262 262 262 263 263 263 264 264 264 265 265 266 266 267 268 269 270 272 273 273 273 274 274 274 274 274 274 274 274 275
266 266 265 265 265 264 263 262 262 261 261 262 262 262 262 263 263 264 264 264 265 265 266 266 267 268 269 270 271 272 273 274 274 274 275 275 275 275 275 275 275 276
265 264 264 264 264 263 262 261 261 261 261 261 262 262 263 263 264 264 264 265 265 265 266 266 267 268 269 270 272 273 274 274 275 275 275 275 275 276 276 276 276 276
264 264 264 263 263 262 261 261 261 261 261 262 262 262 263 263 264 264 264 264 265 265 266 266 266 267 269 270 272 273 274 275 276 276 276 276 276 276 276 276 276 276
263 263 263 262 262 261 261 260 261 261 261 262 262 263 263 264 264 264 264 264 264 265 265 265 266 267 268 270 272 273 274 275 276 277 277 277 277 277 277 277 277 277
263 262 262 261 261 260 260 260 260 261 261 262 262 263 263 263 263 263 264 264 264 264 264 265 265 267 268 270 271 273 274 276 277 277 278 278 278 278 278 277 277 277
263 262 261 261 260 260 260 260 260 261 261 262 262 263 263 263 263 263 263 263 264 264 264 265 265 267 268 270 271 273 274 275 276 277 278 278 278 278 278 278 277 277
263 262 260 260 260 260 260 260 260 261 261 262 262 262 262 263 263 263 263 263 264 264 264 265 266 267 268 270 271 273 274 275 276 277 277 278 278 278 278 278 278 278
264 262 260 259 259 260 260 260 261 261 262 262 262 262 262 263 263 263 263 263 264 264 265 266 267 267 268 269 271 273 274 275 276 276 276 277 277 278 279 278 278 279
264 262 260 259 259 260 260 260 261 261 261 262 262 262 262 262 263 263 263 264 264 265 266 266 267 267 268 270 272 273 274 275 275 275 275 276 277 278 279 279 279 279

ECMWFNIL_925_thetae_009.txt.gz
Theta_e
281 280 279 279 278 277 277 277 276 276 276 276 276 276 276 276 276 276 276 275 275 275 275 276 276 276 276 276 276 277 277 277 277 277 277 277 277 277 277 277 278 278
280 279 279 278 278 277 277 276 275 275 275 275 275 275 275 275 275 275 275 274 275 275 275 275 275 276 276 276 276 276 276 277 277 277 276 277 276 277 277 277 277 278
280 279 278 277 277 277 277 275 275 275 275 275 275 275 274 274 274 274 274 274 274 274 274 275 275 275 275 276 276 276 276 276 276 276 276 276 276 276 276 277 277 277
280 279 278 277 277 277 276 275 275 275 275 274 275 274 274 273 273 273 273 273 273 273 274 274 274 275 275 275 275 275 276 276 276 276 276 276 276 276 276 276 276 277
279 278 277 277 277 276 275 275 275 275 274 274 274 273 273 273 272 272 272 272 272 273 273 273 274 274 274 275 275 275 275 276 276 276 276 276 276 276 276 276 276 276
278 277 277 278 277 275 275 275 275 274 274 273 273 272 272 272 272 272 272 272 272 272 273 273 273 273 274 274 275 275 275 275 275 275 275 275 275 275 275 275 276 276
277 277 278 277 276 275 275 275 275 274 273 272 272 271 271 271 271 271 271 271 272 272 272 272 272 273 273 274 274 274 274 273 273 274 274 274 275 275 275 275 275 275
277 277 277 276 275 275 275 275 274 273 272 271 271 271 270 270 271 271 271 271 271 271 271 271 272 272 272 273 273 272 272 272 272 273 273 274 274 274 274 274 274 275
277 277 276 275 275 275 275 274 273 272 271 270 270 270 270 270 270 270 270 269 269 269 270 270 270 271 271 271 271 271 271 271 271 271 272 273 273 273 273 273 274 274
277 276 275 274 275 274 273 273 272 271 270 269 269 269 269 269 269 268 268 268 268 268 268 269 269 269 269 269 269 269 269 269 270 270 270 271 272 272 272 273 273 274
276 275 274 274 274 273 272 271 270 269 269 268 268 268 268 267 267 267 267 267 267 267 267 267 267 267 267 267 267 268 268 268 269 269 269 270 270 271 271 272 272 273
274 273 273 273 273 272 271 270 269 269 268 268 267 267 266 266 265 265 265 265 265 266 266 266 266 266 266 266 266 267 267 267 268 268 268 269 269 270 270 271 272 272
273 273 273 272 272 271 270 269 268 268 267 267 266 266 265 264 264 264 264 264 264 264 265 265 265 265 265 266 266 266 267 267 267 268 268 268 269 269 270 271 271 272
273 272 272 272 271 270 269 268 268 267 267 266 266 265 264 264 264 264 263 263 264 264 264 264 265 265 265 265 266 266 267 267 268 268 268 269 269 270 270 271 271 272
272 272 271 271 271 270 269 267 266 266 266 266 265 264 264 264 263 263 263 263 264 264 264 264 265 265 265 266 267 267 268 269 269 270 270 270 270 271 271 271 272 272
271 271 271 271 270 269 267 266 265 265 265 265 265 264 264 263 263 263 263 263 264 264 265 265 265 265 266 267 268 269 270 271 271 272 272 272 272 273 273 272 272 272
271 271 271 270 269 267 266 265 265 265 265 265 265 264 263 263 263 263 263 264 264 265 265 265 265 265 266 268 269 270 271 271 272 272 273 273 274 274 274 274 274 274
271 271 271 270 268 266 265 264 264 264 264 265 264 264 263 263 263 263 264 264 264 264 264 265 265 265 267 268 269 270 271 272 272 272 273 273 274 274 275 275 275 275
271 271 270 268 266 265 264 264 264 264 265 265 264 263 263 263 263 263 264 264 264 264 264 264 265 265 267 268 269 270 271 272 272 273 273 274 274 275 275 276 276 276
271 270 268 266 265 265 264 264 264 265 265 264 263 263 262 263 263 263 263 263 263 264 264 264 264 265 267 268 270 271 272 272 273 273 273 274 274 275 275 276 276 277
270 269 266 265 264 264 264 265 266 266 265 264 263 262 262 262 263 263 263 263 263 264 264 264 264 265 267 269 270 271 272 273 273 273 273 274 274 275 275 276 277 277
268 267 265 264 263 264 265 267 267 266 265 263 262 262 262 262 263 263 263 263 263 264 264 264 265 266 267 269 270 272 273 273 273 273 273 274 274 275 275 276 276 277
267 265 264 263 263 264 267 268 267 265 264 263 262 262 262 262 262 262 263 263 263 264 264 264 265 266 267 269 271 272 273 273 273 273 274 274 274 275 275 275 275 276
265 263 262 263 264 265 267 268 266 264 264 263 262 262 262 262 262 262 263 263 264 264 265 265 265 266 268 270 271 272 273 273 273 274 274 274 274 274 275 275 275 276
265 262 262 263 266 267 267 266 265 264 263 262 262 262 262 262 263 263 263 264 264 265 265 266 266 267 268 270 271 272 273 273 273 274 274 274 274 275 275 275 275 276
263 262 262 264 266 267 267 266 264 263 262 262 262 262 262 262 263 263 263 264 265 266 267 267 267 268 269 271 272 272 273 273 274 274 274 274 275 275 275 276 276 276